Home   Weather   Lilienfeld   Past weeks

Flag for Austria Past Weather in Lilienfeld, Lower Austria, Austria — Yesterday and Last 2 Weeks

Now
30 °F

Passing clouds.


Feels Like: 22 °F
Forecast: 12 / 20 °F
Wind: 9 mph from North

Location: Tulln Airport

Current Time: Jan 18, 2017 at 12:57:24 am

Latest Report: Jan 17, 2017 at 9:50 pm


Visibility: 9 mi

Pressure: 30.51 "Hg

Humidity: 64%

Dew Point: 19 °F

Location of LilienfeldLocation

Past Weather in Lilienfeld — Graph

°F

Lilienfeld Temperature Yesterday

Maximum temperature yesterday: 32 °F (at 2:20 pm)
Minimum temperature yesterday: 27 °F (at 4:50 am)
Average temperature yesterday: 30 °F

High & Low Weather Summary for the Past Weeks

 TemperatureHumidityPressure
High43 °F (Jan 12, 1:20 pm)93% (Jan 8, 5:50 am)30.60 "Hg (Jan 8, 5:50 am)
Low7 °F (Jan 11, 8:20 am)42% (Jan 7, 12:50 pm)29.42 "Hg (Jan 13, 4:50 am)
Average28 °F74%30.10 "Hg
* Reported Jan 2 9:50 pm — Jan 17 9:50 pm, Lilienfeld, Weather by CustomWeather, © 2017

Note: Actual official high and low records may vary slightly from our data, if they occured in-between our weather recording intervals... More about our weather records

Advertising

Lilienfeld Weather History for the Previous 24 Hours

Scroll right to see more
 ConditionsComfort  
Time TempWeatherWind HumidityBarometerVisibility
9:50 pm
Tue, Jan 17
30 °FPassing clouds.9 mph64%30.51 "Hg9 mi
8:50 pm30 °FPassing clouds.9 mph64%30.51 "Hg9 mi
8:20 pm30 °FPassing clouds.8 mph69%30.51 "Hg12 mi
7:50 pm30 °FPartly cloudy.8 mph64%30.51 "Hg12 mi
7:20 pm30 °FPartly cloudy.7 mph64%30.48 "Hg9 mi
6:50 pm30 °FPassing clouds.8 mph64%30.48 "Hg9 mi
6:20 pm30 °FPassing clouds.7 mph69%30.48 "Hg9 mi
5:50 pm30 °FPassing clouds.6 mph69%30.48 "Hg9 mi
5:20 pm30 °FPassing clouds.9 mph69%30.45 "Hg9 mi
4:50 pm30 °FPassing clouds.8 mph69%30.45 "Hg9 mi
4:20 pm32 °FPartly sunny.10 mph64%30.45 "Hg12 mi
3:50 pm32 °FBroken clouds.8 mph64%30.45 "Hg16 mi
3:20 pm32 °FBroken clouds.9 mph64%30.45 "Hg16 mi
2:50 pm32 °FBroken clouds.12 mph64%30.45 "Hg16 mi
2:20 pm32 °FBroken clouds.7 mph64%30.42 "Hg16 mi
1:50 pm30 °FBroken clouds.6 mph69%30.42 "Hg16 mi
1:20 pm30 °FBroken clouds.6 mph69%30.42 "Hg16 mi
12:50 pm30 °FBroken clouds.9 mph69%30.42 "Hg16 mi
12:20 pm30 °FBroken clouds.8 mph69%30.42 "Hg16 mi
11:50 am30 °FPartly sunny.9 mph64%30.42 "Hg16 mi
11:20 am28 °FPartly sunny.10 mph69%30.42 "Hg16 mi
10:50 am28 °FBroken clouds.9 mph69%30.42 "Hg16 mi
10:20 am28 °FBroken clouds.9 mph69%30.42 "Hg11 mi
9:50 am28 °FBroken clouds.10 mph69%30.42 "Hg11 mi
8:50 am28 °FPartly sunny.8 mph69%30.39 "Hg11 mi
8:20 am28 °FBroken clouds.9 mph74%30.39 "Hg11 mi
7:50 am28 °FBroken clouds.8 mph74%30.39 "Hg11 mi
7:20 am28 °FPassing clouds.6 mph74%30.36 "Hg11 mi
6:50 am28 °FPassing clouds.6 mph74%30.36 "Hg9 mi
5:50 am27 °FPassing clouds.3 mph86%30.33 "Hg9 mi
4:50 am27 °FPartly cloudy.2 mph86%30.33 "Hg7 mi
Weather by CustomWeather, © 2017

See weather overviewHow to use our weather pages